Location: Ammerl�gen
(47.2167°N, 9.6000°E)
Time: 03:38:20
(UTC+00:00)

NOAA 19 - Pass Details

Date: 08 December 2021
Orbit: 841 x 860 km, 99.2° (Epoch: 16 January)

Event Time Altitude Azimuth Distance (km) Brightness Sun altitude
Rises 19:28:18 0° 212° (SSW) 3,386 8.6 -39.1°
Reaches altitude 10° 19:31:35 10° 233° (SW) 2,459 8.0 -39.7°
Maximum altitude 19:34:55 16° 271° (W) 2,049 7.7 -40.3°
Drops below altitude 10° 19:38:17 10° 309° (NW) 2,476 8.2 -40.8°
Sets 19:41:38 0° 330° (NNW) 3,421 8.8 -41.4°
